Flag for China Weather past 2 weeks in Lanchow, Gansu, China

Now
55 °F

Thunderstorms. Scattered clouds.


Feels Like: 54 °F
Forecast: 51 / 83 °F
Wind: 6 mph from Northwest

Location: Lanzhou / Zhongchuan

Current Time: Jul 5, 2015 at 3:54:12 PM

Latest Report: Jul 5, 2015 at 3:00 PM


Visibility: N/A

Pressure: 30.04 "Hg (25.02 "Hg at 1531m altitude)

Humidity: 88%

Dew point: 52 °F

Location of LanchowLocation

Historic Weather in Lanchow — Graph

°F

Lanchow temperature yesterday

Maximum temperature yesterday: 66 °F (at 3:00 PM)
Minimum temperature yesterday: 55 °F (at 2:00 AM)
Average temperature yesterday: 60 °F

Past Weeks' High & Low Weather Summary

 TemperatureHumidityPressure
High86 °F (Jun 26, 5:00 PM)100% (Jun 23, 4:00 AM)30.15 "Hg (Jun 23, 4:00 AM)
Low50 °F (Jun 21, 5:00 AM)28% (Jun 21, 2:00 PM)29.59 "Hg (Jun 26, 4:00 PM)
Average64 °F74%29.94 "Hg
* Reported Jun 20 2:00 PM — Jul 5 2:00 PM, Lanchow, Weather by CustomWeather, © 2015

Note: Actual official high and low records may vary slightly from our data, if they occured in-between our weather recording intervals... More about our weather records

Advertising

Lanchow weather history for previous 24 hours

 ConditionsComfort  
Time TempWeatherWind HumidityBarometerVisibility
2:00 PM
Sun, Jul 5
66 °FThunderstorms. Scattered clouds.10 mph52%30.04 "HgN/A
1:00 PM72 °FScattered clouds.6 mph44%30.04 "HgN/A
12:00 PM70 °FPassing clouds.6 mph50%30.07 "HgN/A
11:00 AM68 °FPassing clouds.8 mph56%30.09 "HgN/A
10:00 AM64 °FPassing clouds.6 mph68%30.09 "HgN/A
9:00 AM61 °FFog.3 mph72%30.12 "Hg3 mi
8:00 AM59 °FFog.No wind88%30.12 "Hg1 mi
7:00 AM55 °FFog.1 mph94%30.09 "Hg1 mi
6:00 AM55 °FFog.1 mph94%30.09 "Hg1 mi
5:00 AM55 °FOvercast.6 mph94%30.09 "Hg4 mi
4:00 AM57 °FLight rain. Overcast.1 mph82%30.12 "HgN/A
3:00 AM57 °FOvercast.1 mph82%30.12 "HgN/A
2:00 AM57 °FOvercast.1 mph88%30.12 "Hg4 mi
1:00 AM59 °FFog.1 mph88%30.12 "Hg2 mi
12:00 AM59 °FLight rain. Overcast.1 mph82%30.12 "HgN/A
11:00 PM
Sat, Jul 4
59 °FFog.1 mph88%30.12 "Hg2 mi
10:00 PM61 °FClear.6 mph83%30.09 "Hg4 mi
9:00 PM61 °FPartly sunny.3 mph83%30.09 "Hg4 mi
8:00 PM63 °FPartly sunny.3 mph73%30.07 "Hg5 mi
7:00 PM63 °FOvercast.6 mph77%30.07 "Hg4 mi
6:00 PM64 °FOvercast.3 mph68%30.04 "Hg4 mi
5:00 PM64 °FScattered clouds.6 mph68%30.07 "HgN/A
4:00 PM66 °FScattered clouds.1 mph56%30.07 "HgN/A
3:00 PM66 °FScattered clouds.3 mph56%30.07 "HgN/A
Weather by CustomWeather, © 2015

See weather overviewHow to use our weather pages